Year,Month,Day,Hour,Minute,Value (Times are PST for temperature in C)
2019,05,27,00,00,16.70
2019,05,27,00,01,16.70
2019,05,27,00,02,16.70
2019,05,27,00,03,16.70
2019,05,27,00,04,16.70
2019,05,27,00,05,16.70
2019,05,27,00,06,16.70
2019,05,27,00,07,16.70
2019,05,27,00,08,16.70
2019,05,27,00,09,16.60
2019,05,27,00,10,16.60
2019,05,27,00,11,16.60
2019,05,27,00,12,16.50
2019,05,27,00,13,16.50
2019,05,27,00,14,16.40
2019,05,27,00,15,16.40
2019,05,27,00,16,16.40
2019,05,27,00,17,16.30
2019,05,27,00,18,16.30
2019,05,27,00,19,16.30
2019,05,27,00,20,16.30
2019,05,27,00,21,16.30
2019,05,27,00,22,16.30
2019,05,27,00,23,16.30
2019,05,27,00,24,16.30
2019,05,27,00,25,16.40
2019,05,27,00,26,16.40
2019,05,27,00,27,16.40
2019,05,27,00,28,16.40
2019,05,27,00,29,16.50
2019,05,27,00,30,16.50
2019,05,27,00,31,16.50
2019,05,27,00,32,16.50
2019,05,27,00,33,16.50
2019,05,27,00,34,16.50
2019,05,27,00,35,16.50
2019,05,27,00,36,16.50
2019,05,27,00,37,16.50
2019,05,27,00,38,16.60
2019,05,27,00,39,16.60
2019,05,27,00,40,16.50
2019,05,27,00,41,16.60
2019,05,27,00,42,16.60
2019,05,27,00,43,16.60
2019,05,27,00,44,16.60
2019,05,27,00,45,16.70
2019,05,27,00,46,16.70
2019,05,27,00,47,16.70
2019,05,27,00,48,16.70
2019,05,27,00,49,16.70
2019,05,27,00,50,16.70
2019,05,27,00,51,16.70
2019,05,27,00,52,16.80
2019,05,27,00,53,16.80
2019,05,27,00,54,16.80
2019,05,27,00,55,16.80
2019,05,27,00,56,16.80
2019,05,27,00,57,16.70
2019,05,27,00,58,16.70
2019,05,27,00,59,16.70
2019,05,27,01,00,16.70
2019,05,27,01,01,16.60
2019,05,27,01,02,16.60
2019,05,27,01,03,16.60
2019,05,27,01,04,16.50
2019,05,27,01,05,16.50
2019,05,27,01,06,16.50
2019,05,27,01,07,16.40
2019,05,27,01,08,16.40
2019,05,27,01,09,16.50
2019,05,27,01,10,16.50
2019,05,27,01,11,16.50
2019,05,27,01,12,16.60
2019,05,27,01,13,16.60
2019,05,27,01,14,16.60
2019,05,27,01,15,16.60
2019,05,27,01,16,16.60
2019,05,27,01,17,16.60
2019,05,27,01,18,16.60
2019,05,27,01,19,16.60
2019,05,27,01,20,16.60
2019,05,27,01,21,16.60
2019,05,27,01,22,16.60
2019,05,27,01,23,16.60
2019,05,27,01,24,16.60
2019,05,27,01,25,16.60
2019,05,27,01,26,16.60
2019,05,27,01,27,16.60
2019,05,27,01,28,16.70
2019,05,27,01,29,16.70
2019,05,27,01,30,16.70
2019,05,27,01,31,16.70
2019,05,27,01,32,16.60
2019,05,27,01,33,16.60
2019,05,27,01,34,16.60
2019,05,27,01,35,16.50
2019,05,27,01,36,16.50
2019,05,27,01,37,16.40
2019,05,27,01,38,16.40
2019,05,27,01,39,16.30
2019,05,27,01,40,16.30
2019,05,27,01,41,16.20
2019,05,27,01,42,16.10
2019,05,27,01,43,16.00
2019,05,27,01,44,15.90
2019,05,27,01,45,15.80
2019,05,27,01,46,15.70
2019,05,27,01,47,15.70
2019,05,27,01,48,15.70
2019,05,27,01,49,15.70
2019,05,27,01,50,15.70
2019,05,27,01,51,15.70
2019,05,27,01,52,15.80
2019,05,27,01,53,15.80
2019,05,27,01,54,15.80
2019,05,27,01,55,15.80
2019,05,27,01,56,15.80
2019,05,27,01,57,15.80
2019,05,27,01,58,15.80
2019,05,27,01,59,15.80
2019,05,27,02,00,15.80
2019,05,27,02,01,15.80
2019,05,27,02,02,15.80
2019,05,27,02,03,15.80
2019,05,27,02,04,15.80
2019,05,27,02,05,15.70
2019,05,27,02,06,15.70
2019,05,27,02,07,15.60
2019,05,27,02,08,15.60
2019,05,27,02,09,15.60
2019,05,27,02,10,15.60
2019,05,27,02,11,15.60
2019,05,27,02,12,15.60
2019,05,27,02,13,15.70
2019,05,27,02,14,15.70
2019,05,27,02,15,15.70
2019,05,27,02,16,15.70
2019,05,27,02,17,15.60
2019,05,27,02,18,15.60
2019,05,27,02,19,15.60
2019,05,27,02,20,15.60
2019,05,27,02,21,15.60
2019,05,27,02,22,15.50
2019,05,27,02,23,15.60
2019,05,27,02,24,15.60
2019,05,27,02,25,15.60
2019,05,27,02,26,15.60
2019,05,27,02,27,15.60
2019,05,27,02,28,15.60
2019,05,27,02,29,15.60
2019,05,27,02,30,15.60
2019,05,27,02,31,15.60
2019,05,27,02,32,15.60
2019,05,27,02,33,15.60
2019,05,27,02,34,15.60
2019,05,27,02,35,15.60
2019,05,27,02,36,15.60
2019,05,27,02,37,15.60
2019,05,27,02,38,15.60
2019,05,27,02,39,15.50
2019,05,27,02,40,15.50
2019,05,27,02,41,15.40
2019,05,27,02,42,15.40
2019,05,27,02,43,15.40
2019,05,27,02,44,15.40
2019,05,27,02,45,15.40
2019,05,27,02,46,15.50
2019,05,27,02,47,15.50
2019,05,27,02,48,15.60
2019,05,27,02,49,15.60
2019,05,27,02,50,15.60
2019,05,27,02,51,15.60
2019,05,27,02,52,15.70
2019,05,27,02,53,15.70
2019,05,27,02,54,15.70
2019,05,27,02,55,15.70
2019,05,27,02,56,15.70
2019,05,27,02,57,15.70
2019,05,27,02,58,15.70
2019,05,27,02,59,15.70
2019,05,27,03,00,15.70
2019,05,27,03,01,15.70
2019,05,27,03,02,15.70
2019,05,27,03,03,15.70
2019,05,27,03,04,15.70
2019,05,27,03,05,15.70
2019,05,27,03,06,15.60
2019,05,27,03,07,15.60
2019,05,27,03,08,15.60
2019,05,27,03,09,15.60
2019,05,27,03,10,15.60
2019,05,27,03,11,15.60
2019,05,27,03,12,15.60
2019,05,27,03,13,15.60
2019,05,27,03,14,15.50
2019,05,27,03,15,15.50
2019,05,27,03,16,15.40
2019,05,27,03,17,15.40
2019,05,27,03,18,15.40
2019,05,27,03,19,15.30
2019,05,27,03,20,15.20
2019,05,27,03,21,15.10
2019,05,27,03,22,15.00
2019,05,27,03,23,14.90
2019,05,27,03,24,14.90
2019,05,27,03,25,14.90
2019,05,27,03,26,14.90
2019,05,27,03,27,14.90
2019,05,27,03,28,14.90
2019,05,27,03,29,14.90
2019,05,27,03,30,14.90
2019,05,27,03,31,14.90
2019,05,27,03,32,14.80
2019,05,27,03,33,14.80
2019,05,27,03,34,14.80
2019,05,27,03,35,14.80
2019,05,27,03,36,14.80
2019,05,27,03,37,14.80
2019,05,27,03,38,14.80
2019,05,27,03,39,14.80
2019,05,27,03,40,14.80
2019,05,27,03,41,14.80
2019,05,27,03,42,14.80
2019,05,27,03,43,14.80
2019,05,27,03,44,14.80
2019,05,27,03,45,14.80
2019,05,27,03,46,14.80
2019,05,27,03,47,14.80
2019,05,27,03,48,14.80
2019,05,27,03,49,14.80
2019,05,27,03,50,14.80
2019,05,27,03,51,14.80
2019,05,27,03,52,14.80
2019,05,27,03,53,14.80
2019,05,27,03,54,14.80
2019,05,27,03,55,14.70
2019,05,27,03,56,14.70
2019,05,27,03,57,14.70
2019,05,27,03,58,14.60
2019,05,27,03,59,14.50
2019,05,27,04,00,14.40
2019,05,27,04,01,14.40
2019,05,27,04,02,14.30
2019,05,27,04,03,14.30
2019,05,27,04,04,14.20
2019,05,27,04,05,14.20
2019,05,27,04,06,14.10
2019,05,27,04,07,14.10
2019,05,27,04,08,14.10
2019,05,27,04,09,14.10
2019,05,27,04,10,14.00
2019,05,27,04,11,14.00
2019,05,27,04,12,13.90
2019,05,27,04,13,13.90
2019,05,27,04,14,13.90
2019,05,27,04,15,13.80
2019,05,27,04,16,13.80
2019,05,27,04,17,13.80
2019,05,27,04,18,13.80
2019,05,27,04,19,13.80
2019,05,27,04,20,13.80
2019,05,27,04,21,13.80
2019,05,27,04,22,13.80
2019,05,27,04,23,13.80
2019,05,27,04,24,13.90
2019,05,27,04,25,13.90
2019,05,27,04,26,14.00
2019,05,27,04,27,14.00
2019,05,27,04,28,14.00
2019,05,27,04,29,14.00
2019,05,27,04,30,14.00
2019,05,27,04,31,14.00
2019,05,27,04,32,14.10
2019,05,27,04,33,14.10
2019,05,27,04,34,14.10
2019,05,27,04,35,14.10
2019,05,27,04,36,14.10
2019,05,27,04,37,14.20
2019,05,27,04,38,14.20
2019,05,27,04,39,14.20
2019,05,27,04,40,14.20
2019,05,27,04,41,14.20
2019,05,27,04,42,14.20
2019,05,27,04,43,14.20
2019,05,27,04,44,14.20
2019,05,27,04,45,14.20
2019,05,27,04,46,14.20
2019,05,27,04,47,14.20
2019,05,27,04,48,14.10
2019,05,27,04,49,14.10
2019,05,27,04,50,14.10
2019,05,27,04,51,14.10
2019,05,27,04,52,14.00
2019,05,27,04,53,14.00
2019,05,27,04,54,13.90
2019,05,27,04,55,13.90
2019,05,27,04,56,13.80
2019,05,27,04,57,13.80
2019,05,27,04,58,13.80
2019,05,27,04,59,13.80
2019,05,27,05,00,13.70
2019,05,27,05,01,13.70
2019,05,27,05,02,13.70
2019,05,27,05,03,13.70
2019,05,27,05,04,13.70
2019,05,27,05,05,13.60
2019,05,27,05,06,13.60
2019,05,27,05,07,13.60
2019,05,27,05,08,13.60
2019,05,27,05,09,13.60
2019,05,27,05,10,13.60
2019,05,27,05,11,13.60
2019,05,27,05,12,13.60
2019,05,27,05,13,13.60
2019,05,27,05,14,13.60
2019,05,27,05,15,13.60
2019,05,27,05,16,13.60
2019,05,27,05,17,13.50
2019,05,27,05,18,13.50
2019,05,27,05,19,13.40
2019,05,27,05,20,13.40
2019,05,27,05,21,13.40
2019,05,27,05,22,13.40
2019,05,27,05,23,13.30
2019,05,27,05,24,13.30
2019,05,27,05,25,13.30
2019,05,27,05,26,13.30
2019,05,27,05,27,13.30
2019,05,27,05,28,13.30
2019,05,27,05,29,13.30
2019,05,27,05,30,13.30
2019,05,27,05,31,13.30
2019,05,27,05,32,13.30
2019,05,27,05,33,13.30
2019,05,27,05,34,13.30
2019,05,27,05,35,13.30
2019,05,27,05,36,13.30
2019,05,27,05,37,13.30
2019,05,27,05,38,13.30
2019,05,27,05,39,13.30
2019,05,27,05,40,13.30
2019,05,27,05,41,13.40
2019,05,27,05,42,13.40
2019,05,27,05,43,13.40
2019,05,27,05,44,13.40
2019,05,27,05,45,13.50
2019,05,27,05,46,13.50
2019,05,27,05,47,13.50
2019,05,27,05,48,13.50
2019,05,27,05,49,13.50
2019,05,27,05,50,13.50
2019,05,27,05,51,13.50
2019,05,27,05,52,13.50
2019,05,27,05,53,13.50
2019,05,27,05,54,13.40
2019,05,27,05,55,13.40
2019,05,27,05,56,13.40
2019,05,27,05,57,13.40
2019,05,27,05,58,13.40
2019,05,27,05,59,13.40
2019,05,27,06,00,13.40
2019,05,27,06,01,13.40
2019,05,27,06,02,13.40
2019,05,27,06,03,13.40
2019,05,27,06,04,13.40
2019,05,27,06,05,13.40
2019,05,27,06,06,13.50
2019,05,27,06,07,13.50
2019,05,27,06,08,13.50
2019,05,27,06,09,13.50
2019,05,27,06,10,13.50
2019,05,27,06,11,13.50
2019,05,27,06,12,13.50
2019,05,27,06,13,13.50
2019,05,27,06,14,13.50
2019,05,27,06,15,13.60
2019,05,27,06,16,13.60
2019,05,27,06,17,13.60
2019,05,27,06,18,13.60
2019,05,27,06,19,13.60
2019,05,27,06,20,13.60
2019,05,27,06,21,13.60
2019,05,27,06,22,13.60
2019,05,27,06,23,13.60
2019,05,27,06,24,13.60
2019,05,27,06,25,13.60
2019,05,27,06,26,13.60
2019,05,27,06,27,13.70
2019,05,27,06,28,13.70
2019,05,27,06,29,13.70
2019,05,27,06,30,13.70
2019,05,27,06,31,13.80
2019,05,27,06,32,13.80
2019,05,27,06,33,13.80
2019,05,27,06,34,13.70
2019,05,27,06,35,13.70
2019,05,27,06,36,13.70
2019,05,27,06,37,13.70
2019,05,27,06,38,13.60
2019,05,27,06,39,13.60
2019,05,27,06,40,13.60
2019,05,27,06,41,13.60
2019,05,27,06,42,13.60
2019,05,27,06,43,13.60
2019,05,27,06,44,13.60
2019,05,27,06,45,13.60
2019,05,27,06,46,13.60
2019,05,27,06,47,13.60
2019,05,27,06,48,13.60
2019,05,27,06,49,13.60
2019,05,27,06,50,13.60
2019,05,27,06,51,13.60
2019,05,27,06,52,13.60
2019,05,27,06,53,13.60
2019,05,27,06,54,13.70
2019,05,27,06,55,13.70
2019,05,27,06,56,13.70
2019,05,27,06,57,13.70
2019,05,27,06,58,13.70
2019,05,27,06,59,13.70
2019,05,27,07,00,13.80
2019,05,27,07,01,13.80
2019,05,27,07,02,13.80
2019,05,27,07,03,13.80
2019,05,27,07,04,13.80
2019,05,27,07,05,13.80
2019,05,27,07,06,13.90
2019,05,27,07,07,13.90
2019,05,27,07,08,13.90
2019,05,27,07,09,13.90
2019,05,27,07,10,13.90
2019,05,27,07,11,14.00
2019,05,27,07,12,14.00
2019,05,27,07,13,14.00
2019,05,27,07,14,14.10
2019,05,27,07,15,14.10
2019,05,27,07,16,14.10
2019,05,27,07,17,14.10
2019,05,27,07,18,14.10
2019,05,27,07,19,14.20
2019,05,27,07,20,14.20
2019,05,27,07,21,14.20
2019,05,27,07,22,14.20
2019,05,27,07,23,14.20
2019,05,27,07,24,14.30
2019,05,27,07,25,14.30
2019,05,27,07,26,14.30
2019,05,27,07,27,14.30
2019,05,27,07,28,14.40
2019,05,27,07,29,14.40
2019,05,27,07,30,14.40
2019,05,27,07,31,14.40
2019,05,27,07,32,14.50
2019,05,27,07,33,14.50
2019,05,27,07,34,14.60
2019,05,27,07,35,14.60
2019,05,27,07,36,14.60
2019,05,27,07,37,14.70
2019,05,27,07,38,14.70
2019,05,27,07,39,14.70
2019,05,27,07,40,14.70
2019,05,27,07,41,14.80
2019,05,27,07,42,14.80
2019,05,27,07,43,14.90
2019,05,27,07,44,14.90
2019,05,27,07,45,15.00
2019,05,27,07,46,15.10
2019,05,27,07,47,15.20
2019,05,27,07,48,15.20
2019,05,27,07,49,15.20
2019,05,27,07,50,15.30
2019,05,27,07,51,15.40
2019,05,27,07,52,15.40
2019,05,27,07,53,15.50
2019,05,27,07,54,15.50
2019,05,27,07,55,15.50
2019,05,27,07,56,15.50
2019,05,27,07,57,15.50
2019,05,27,07,58,15.60
2019,05,27,07,59,15.60
2019,05,27,08,00,15.60
2019,05,27,08,01,15.60
2019,05,27,08,02,15.70
2019,05,27,08,03,15.70
2019,05,27,08,04,15.70
2019,05,27,08,05,15.70
2019,05,27,08,06,15.80
2019,05,27,08,07,15.80
2019,05,27,08,08,15.80
2019,05,27,08,09,15.80
2019,05,27,08,10,15.80
2019,05,27,08,11,15.80
2019,05,27,08,12,15.80
2019,05,27,08,13,15.80
2019,05,27,08,14,15.90
2019,05,27,08,15,15.90
2019,05,27,08,16,16.00
2019,05,27,08,17,16.00
2019,05,27,08,18,16.10
2019,05,27,08,19,16.10
2019,05,27,08,20,16.10
2019,05,27,08,21,16.20
2019,05,27,08,22,16.20
2019,05,27,08,23,16.20
2019,05,27,08,24,16.20
2019,05,27,08,25,16.20
2019,05,27,08,26,16.30
2019,05,27,08,27,16.30
2019,05,27,08,28,16.30
2019,05,27,08,29,16.30
2019,05,27,08,30,16.30
2019,05,27,08,31,16.40
2019,05,27,08,32,16.40
2019,05,27,08,33,16.40
2019,05,27,08,34,16.40
2019,05,27,08,35,16.50
2019,05,27,08,36,16.60
2019,05,27,08,37,16.60
2019,05,27,08,38,16.70
2019,05,27,08,39,16.80
2019,05,27,08,40,16.90
2019,05,27,08,41,16.90
2019,05,27,08,42,17.00
2019,05,27,08,43,17.10
2019,05,27,08,44,17.10
2019,05,27,08,45,17.20
2019,05,27,08,46,17.20
2019,05,27,08,47,17.30
2019,05,27,08,48,17.30
2019,05,27,08,49,17.40
2019,05,27,08,50,17.40
2019,05,27,08,51,17.40
2019,05,27,08,52,17.30
2019,05,27,08,53,17.30
2019,05,27,08,54,17.20
2019,05,27,08,55,17.10
2019,05,27,08,56,17.00
2019,05,27,08,57,17.00
2019,05,27,08,58,16.90
2019,05,27,08,59,16.90
2019,05,27,09,00,16.90
2019,05,27,09,01,16.90
2019,05,27,09,02,16.90
2019,05,27,09,03,16.80
2019,05,27,09,04,16.80
2019,05,27,09,05,16.80
2019,05,27,09,06,16.80
2019,05,27,09,07,16.80
2019,05,27,09,08,16.90
2019,05,27,09,09,16.90
2019,05,27,09,10,17.00
2019,05,27,09,11,17.00
2019,05,27,09,12,17.00
2019,05,27,09,13,17.00
2019,05,27,09,14,17.00
2019,05,27,09,15,17.00
2019,05,27,09,16,17.00
2019,05,27,09,17,17.00
2019,05,27,09,18,17.00
2019,05,27,09,19,17.00
2019,05,27,09,20,17.00
2019,05,27,09,21,17.00
2019,05,27,09,22,17.10
2019,05,27,09,23,17.10
2019,05,27,09,24,17.20
2019,05,27,09,25,17.20
2019,05,27,09,26,17.30
2019,05,27,09,27,17.40
2019,05,27,09,28,17.40
2019,05,27,09,29,17.50
2019,05,27,09,30,17.50
2019,05,27,09,31,17.60
2019,05,27,09,32,17.70
2019,05,27,09,33,17.80
2019,05,27,09,34,17.80
2019,05,27,09,35,17.90
2019,05,27,09,36,18.00
2019,05,27,09,37,18.00
2019,05,27,09,38,18.10
2019,05,27,09,39,18.20
2019,05,27,09,40,18.30
2019,05,27,09,41,18.30
2019,05,27,09,42,18.40
2019,05,27,09,43,18.40
2019,05,27,09,44,18.40
2019,05,27,09,45,18.50
2019,05,27,09,46,18.60
2019,05,27,09,47,18.70
2019,05,27,09,48,18.80
2019,05,27,09,49,18.80
2019,05,27,09,50,19.00
2019,05,27,09,51,19.00
2019,05,27,09,52,19.10
2019,05,27,09,53,19.20
2019,05,27,09,54,19.20
2019,05,27,09,55,19.30
2019,05,27,09,56,19.30
2019,05,27,09,57,19.40
2019,05,27,09,58,19.50
2019,05,27,09,59,19.50
2019,05,27,10,00,19.60
2019,05,27,10,01,19.70
2019,05,27,10,02,19.80
2019,05,27,10,03,19.80
2019,05,27,10,04,19.90
2019,05,27,10,05,19.90
2019,05,27,10,06,20.00
2019,05,27,10,07,20.10
2019,05,27,10,08,20.10
2019,05,27,10,09,20.20
2019,05,27,10,10,20.30
2019,05,27,10,11,20.40
2019,05,27,10,12,20.50
2019,05,27,10,13,20.60
2019,05,27,10,14,20.70
2019,05,27,10,15,20.80
2019,05,27,10,16,20.80
2019,05,27,10,17,20.90
2019,05,27,10,18,21.00
2019,05,27,10,19,21.00
2019,05,27,10,20,21.10
2019,05,27,10,21,21.10
2019,05,27,10,22,21.20
2019,05,27,10,23,21.30
2019,05,27,10,24,21.40
2019,05,27,10,25,21.40
2019,05,27,10,26,21.40
2019,05,27,10,27,21.40
2019,05,27,10,28,21.40
2019,05,27,10,29,21.40
2019,05,27,10,30,21.50
2019,05,27,10,31,21.50
2019,05,27,10,32,21.40
2019,05,27,10,33,21.40
2019,05,27,10,34,21.40
2019,05,27,10,35,21.40
2019,05,27,10,36,21.40
2019,05,27,10,37,21.30
2019,05,27,10,38,21.30
2019,05,27,10,39,21.20
2019,05,27,10,40,21.20
2019,05,27,10,41,21.20
2019,05,27,10,42,21.20
2019,05,27,10,43,21.10
2019,05,27,10,44,21.10
2019,05,27,10,45,21.10
2019,05,27,10,46,21.10
2019,05,27,10,47,21.10
2019,05,27,10,48,21.20
2019,05,27,10,49,21.20
2019,05,27,10,50,21.30
2019,05,27,10,51,21.30
2019,05,27,10,52,21.30
2019,05,27,10,53,21.30
2019,05,27,10,54,21.40
2019,05,27,10,55,21.50
2019,05,27,10,56,21.60
2019,05,27,10,57,21.70
2019,05,27,10,58,21.70
2019,05,27,10,59,21.70
2019,05,27,11,00,21.70
2019,05,27,11,01,21.80
2019,05,27,11,02,21.80
2019,05,27,11,03,21.90
2019,05,27,11,04,22.00
2019,05,27,11,05,22.00
2019,05,27,11,06,22.10
2019,05,27,11,07,22.20
2019,05,27,11,08,22.30
2019,05,27,11,09,22.30
2019,05,27,11,10,22.40
2019,05,27,11,11,22.40
2019,05,27,11,12,22.40
2019,05,27,11,13,22.40
2019,05,27,11,14,22.40
2019,05,27,11,15,22.30
2019,05,27,11,16,22.30
2019,05,27,11,17,22.30
2019,05,27,11,18,22.20
2019,05,27,11,19,22.20
2019,05,27,11,20,22.30
2019,05,27,11,21,22.30
2019,05,27,11,22,22.40
2019,05,27,11,23,22.40
2019,05,27,11,24,22.50
2019,05,27,11,25,22.50
2019,05,27,11,26,22.40
2019,05,27,11,27,22.40
2019,05,27,11,28,22.30
2019,05,27,11,29,22.30
2019,05,27,11,30,22.40
2019,05,27,11,31,22.40
2019,05,27,11,32,22.50
2019,05,27,11,33,22.50
2019,05,27,11,34,22.60
2019,05,27,11,35,22.60
2019,05,27,11,36,22.70
2019,05,27,11,37,22.70
2019,05,27,11,38,22.80
2019,05,27,11,39,22.80
2019,05,27,11,40,22.80
2019,05,27,11,41,22.80
2019,05,27,11,42,22.90
2019,05,27,11,43,22.90
2019,05,27,11,44,22.90
2019,05,27,11,45,22.90
2019,05,27,11,46,22.80
2019,05,27,11,47,22.80
2019,05,27,11,48,22.70
2019,05,27,11,49,22.70
2019,05,27,11,50,22.70
2019,05,27,11,51,22.70
2019,05,27,11,52,22.70
2019,05,27,11,53,22.70
2019,05,27,11,54,22.70
2019,05,27,11,55,22.70
2019,05,27,11,56,22.70
2019,05,27,11,57,22.70
2019,05,27,11,58,22.70
2019,05,27,11,59,22.80
2019,05,27,12,00,22.90
2019,05,27,12,01,22.90
2019,05,27,12,02,22.90
2019,05,27,12,03,23.00
2019,05,27,12,04,23.00
2019,05,27,12,05,23.10
2019,05,27,12,06,23.20
2019,05,27,12,07,23.20
2019,05,27,12,08,23.20
2019,05,27,12,09,23.20
2019,05,27,12,10,23.10
2019,05,27,12,11,23.10
2019,05,27,12,12,23.20
2019,05,27,12,13,23.20
2019,05,27,12,14,23.30
2019,05,27,12,15,23.30
2019,05,27,12,16,23.40
2019,05,27,12,17,23.40
2019,05,27,12,18,23.50
2019,05,27,12,19,23.50
2019,05,27,12,20,23.50
2019,05,27,12,21,23.50
2019,05,27,12,22,23.50
2019,05,27,12,23,23.40
2019,05,27,12,24,23.40
2019,05,27,12,25,23.40
2019,05,27,12,26,23.40
2019,05,27,12,27,23.30
2019,05,27,12,28,23.30
2019,05,27,12,29,23.30
2019,05,27,12,30,23.30
2019,05,27,12,31,23.30
2019,05,27,12,32,23.30
2019,05,27,12,33,23.30
2019,05,27,12,34,23.30
2019,05,27,12,35,23.30
2019,05,27,12,36,23.30
2019,05,27,12,37,23.20
2019,05,27,12,38,23.20
2019,05,27,12,39,23.20
2019,05,27,12,40,23.20
2019,05,27,12,41,23.20
2019,05,27,12,42,23.30
2019,05,27,12,43,23.30
2019,05,27,12,44,23.30
2019,05,27,12,45,23.30
2019,05,27,12,46,23.30
2019,05,27,12,47,23.30
2019,05,27,12,48,23.30
2019,05,27,12,49,23.30
2019,05,27,12,50,23.30
2019,05,27,12,51,23.30
2019,05,27,12,52,23.40
2019,05,27,12,53,23.40
2019,05,27,12,54,23.40
2019,05,27,12,55,23.40
2019,05,27,12,56,23.50
2019,05,27,12,57,23.60
2019,05,27,12,58,23.60
2019,05,27,12,59,23.60
2019,05,27,13,00,23.70
2019,05,27,13,01,23.80
2019,05,27,13,02,23.90
2019,05,27,13,03,23.90
2019,05,27,13,04,24.00
2019,05,27,13,05,24.00
2019,05,27,13,06,24.00
2019,05,27,13,07,24.00
2019,05,27,13,08,24.00
2019,05,27,13,09,23.90
2019,05,27,13,10,23.90
2019,05,27,13,11,23.90
2019,05,27,13,12,23.90
2019,05,27,13,13,23.80
2019,05,27,13,14,23.90
2019,05,27,13,15,23.90
2019,05,27,13,16,23.80
2019,05,27,13,17,23.80
2019,05,27,13,18,23.70
2019,05,27,13,19,23.60
2019,05,27,13,20,23.60
2019,05,27,13,21,23.50
2019,05,27,13,22,23.50
2019,05,27,13,23,23.40
2019,05,27,13,24,23.40
2019,05,27,13,25,23.50
2019,05,27,13,26,23.50
2019,05,27,13,27,23.50
2019,05,27,13,28,23.50
2019,05,27,13,29,23.50
2019,05,27,13,30,23.50
2019,05,27,13,31,23.50
2019,05,27,13,32,23.50
2019,05,27,13,33,23.40
2019,05,27,13,34,23.30
2019,05,27,13,35,23.30
2019,05,27,13,36,23.20
2019,05,27,13,37,23.20
2019,05,27,13,38,23.10
2019,05,27,13,39,23.10
2019,05,27,13,40,23.10
2019,05,27,13,41,23.00
2019,05,27,13,42,23.00
2019,05,27,13,43,23.00
2019,05,27,13,44,23.00
2019,05,27,13,45,22.90
2019,05,27,13,46,22.90
2019,05,27,13,47,22.90
2019,05,27,13,48,22.90
2019,05,27,13,49,22.90
2019,05,27,13,50,22.80
2019,05,27,13,51,22.80
2019,05,27,13,52,22.80
2019,05,27,13,53,22.80
2019,05,27,13,54,22.80
2019,05,27,13,55,22.90
2019,05,27,13,56,23.00
2019,05,27,13,57,23.10
2019,05,27,13,58,23.10
2019,05,27,13,59,23.10
2019,05,27,14,00,23.10
2019,05,27,14,01,23.20
2019,05,27,14,02,23.30
2019,05,27,14,03,23.40
2019,05,27,14,04,23.40
2019,05,27,14,05,23.50
2019,05,27,14,06,23.50
2019,05,27,14,07,23.60
2019,05,27,14,08,23.60
2019,05,27,14,09,23.60
2019,05,27,14,10,23.50
2019,05,27,14,11,23.50
2019,05,27,14,12,23.40
2019,05,27,14,13,23.40
2019,05,27,14,14,23.30
2019,05,27,14,15,23.20
2019,05,27,14,16,23.00
2019,05,27,14,17,22.90
2019,05,27,14,18,22.80
2019,05,27,14,19,22.80
2019,05,27,14,20,22.80
2019,05,27,14,21,22.70
2019,05,27,14,22,22.70
2019,05,27,14,23,22.60
2019,05,27,14,24,22.60
2019,05,27,14,25,22.60
2019,05,27,14,26,22.50
2019,05,27,14,27,22.40
2019,05,27,14,28,22.40
2019,05,27,14,29,22.30
2019,05,27,14,30,22.30
2019,05,27,14,31,22.30
2019,05,27,14,32,22.20
2019,05,27,14,33,22.20
2019,05,27,14,34,22.30
2019,05,27,14,35,22.30
2019,05,27,14,36,22.30
2019,05,27,14,37,22.30
2019,05,27,14,38,22.30
2019,05,27,14,39,22.30
2019,05,27,14,40,22.40
2019,05,27,14,41,22.40
2019,05,27,14,42,22.50
2019,05,27,14,43,22.60
2019,05,27,14,44,22.60
2019,05,27,14,45,22.70
2019,05,27,14,46,22.80
2019,05,27,14,47,22.80
2019,05,27,14,48,22.80
2019,05,27,14,49,22.80
2019,05,27,14,50,22.80
2019,05,27,14,51,22.90
2019,05,27,14,52,22.90
2019,05,27,14,53,22.90
2019,05,27,14,54,22.90
2019,05,27,14,55,23.00
2019,05,27,14,56,23.10
2019,05,27,14,57,23.10
2019,05,27,14,58,23.20
2019,05,27,14,59,23.30
2019,05,27,15,00,23.30
2019,05,27,15,01,23.20
2019,05,27,15,02,23.30
2019,05,27,15,03,23.30
2019,05,27,15,04,23.30
2019,05,27,15,05,23.30
2019,05,27,15,06,23.30
2019,05,27,15,07,23.30
2019,05,27,15,08,23.40
2019,05,27,15,09,23.40
2019,05,27,15,10,23.50
2019,05,27,15,11,23.70
2019,05,27,15,12,23.70
2019,05,27,15,13,23.70
2019,05,27,15,14,23.70
2019,05,27,15,15,23.80
2019,05,27,15,16,23.80
2019,05,27,15,17,24.00
2019,05,27,15,18,24.10
2019,05,27,15,19,24.20
2019,05,27,15,20,24.30
2019,05,27,15,21,24.40
2019,05,27,15,22,24.50
2019,05,27,15,23,24.60
2019,05,27,15,24,24.60
2019,05,27,15,25,24.70
2019,05,27,15,26,24.80
2019,05,27,15,27,24.90
2019,05,27,15,28,24.90
2019,05,27,15,29,25.00
2019,05,27,15,30,25.10
2019,05,27,15,31,25.20
2019,05,27,15,32,25.20
2019,05,27,15,33,25.30
2019,05,27,15,34,25.30
2019,05,27,15,35,25.20
2019,05,27,15,36,25.20
2019,05,27,15,37,25.20
2019,05,27,15,38,25.20
2019,05,27,15,39,25.20
2019,05,27,15,40,25.20
2019,05,27,15,41,25.20
2019,05,27,15,42,25.20
2019,05,27,15,43,25.20
2019,05,27,15,44,25.20
2019,05,27,15,45,25.20
2019,05,27,15,46,25.20
2019,05,27,15,47,25.30
2019,05,27,15,48,25.30
2019,05,27,15,49,25.40
2019,05,27,15,50,25.40
2019,05,27,15,51,25.50
2019,05,27,15,52,25.60
2019,05,27,15,53,25.60
2019,05,27,15,54,25.60
2019,05,27,15,55,25.60
2019,05,27,15,56,25.70
2019,05,27,15,57,25.70
2019,05,27,15,58,25.80
2019,05,27,15,59,25.80
2019,05,27,16,00,25.80
2019,05,27,16,01,25.90
2019,05,27,16,02,25.80
2019,05,27,16,03,25.80
2019,05,27,16,04,25.90
2019,05,27,16,05,25.90
2019,05,27,16,06,25.90
2019,05,27,16,07,25.80
2019,05,27,16,08,25.80
2019,05,27,16,09,25.80
2019,05,27,16,10,25.80
2019,05,27,16,11,25.90
2019,05,27,16,12,25.90
2019,05,27,16,13,25.90
2019,05,27,16,14,26.00
2019,05,27,16,15,26.00
2019,05,27,16,16,26.00
2019,05,27,16,17,26.10
2019,05,27,16,18,26.10
2019,05,27,16,19,26.20
2019,05,27,16,20,26.20
2019,05,27,16,21,26.20
2019,05,27,16,22,26.20
2019,05,27,16,23,26.20
2019,05,27,16,24,26.20
2019,05,27,16,25,26.20
2019,05,27,16,26,26.20
2019,05,27,16,27,26.20
2019,05,27,16,28,26.20
2019,05,27,16,29,26.20
2019,05,27,16,30,26.20
2019,05,27,16,31,26.30
2019,05,27,16,32,26.30
2019,05,27,16,33,26.30
2019,05,27,16,34,26.40
2019,05,27,16,35,26.50
2019,05,27,16,36,26.60
2019,05,27,16,37,26.70
2019,05,27,16,38,26.80
2019,05,27,16,39,26.80
2019,05,27,16,40,26.90
2019,05,27,16,41,27.00
2019,05,27,16,42,27.00
2019,05,27,16,43,27.10
2019,05,27,16,44,27.10
2019,05,27,16,45,27.10
2019,05,27,16,46,27.20
2019,05,27,16,47,27.30
2019,05,27,16,48,27.30
2019,05,27,16,49,27.40
2019,05,27,16,50,27.50
2019,05,27,16,51,27.60
2019,05,27,16,52,27.60
2019,05,27,16,53,27.60
2019,05,27,16,54,27.70
2019,05,27,16,55,27.80
2019,05,27,16,56,27.80
2019,05,27,16,57,27.70
2019,05,27,16,58,27.70
2019,05,27,16,59,27.70
2019,05,27,17,00,27.70
2019,05,27,17,01,27.60
2019,05,27,17,02,27.60
2019,05,27,17,03,27.60
2019,05,27,17,04,27.60
2019,05,27,17,05,27.60
2019,05,27,17,06,27.50
2019,05,27,17,07,27.50
2019,05,27,17,08,27.60
2019,05,27,17,09,27.60
2019,05,27,17,10,27.70
2019,05,27,17,11,27.70
2019,05,27,17,12,27.80
2019,05,27,17,13,27.80
2019,05,27,17,14,27.80
2019,05,27,17,15,27.90
2019,05,27,17,16,28.00
2019,05,27,17,17,28.10
2019,05,27,17,18,28.10
2019,05,27,17,19,28.20